• In Deutschland
  • Länderverzeichnis
  • Für 7 Tage
  • Wassertemperatur
  • Satellitenkarten
  • Wetterkarte
  • Widgets
  • user-avatar
    Anmelden

    Stündliche Wetter Algier

    Heute, 29 April, Samstag

    Zeit Temperatur Niederschläge Wind Luftdruck Luftfeuchtigkeit
    00:00 +11°C° 0 mm 6 m/S 747 mmHg 94%
    01:00 +12°C° 0 mm 5 m/S 747 mmHg 94%
    02:00 +12°C° 0 mm 5 m/S 747 mmHg 94%
    03:00 +12°C° 0 mm 5 m/S 747 mmHg 94%
    04:00 +12°C° 0 mm 5 m/S 747 mmHg 92%
    05:00 +13°C° 0 mm 5 m/S 747 mmHg 90%
    06:00 +13°C° 0 mm 5 m/S 747 mmHg 88%
    07:00 +15°C° 0 mm 5 m/S 747 mmHg 80%
    08:00 +18°C° 0 mm 4 m/S 747 mmHg 73%
    09:00 +20°C° 0 mm 4 m/S 747 mmHg 65%
    10:00 +21°C° 0 mm 5 m/S 747 mmHg 62%
    11:00 +23°C° 0 mm 5 m/S 747 mmHg 58%
    12:00 +25°C° 0 mm 5 m/S 747 mmHg 54%
    13:00 +25°C° 0,1 mm 5 m/S 746 mmHg 56%
    14:00 +25°C° 0,1 mm 5 m/S 746 mmHg 58%
    15:00 +25°C° 0,1 mm 5 m/S 746 mmHg 60%
    16:00 +22°C° 0,1 mm 5 m/S 746 mmHg 66%
    17:00 +21°C° 0,1 mm 5 m/S 746 mmHg 73%
    18:00 +20°C° 0,1 mm 4 m/S 746 mmHg 80%
    19:00 +18°C° 0,1 mm 4 m/S 747 mmHg 84%
    20:00 +16°C° 0,1 mm 3 m/S 747 mmHg 89%
    21:00 +13°C° 0,1 mm 3 m/S 747 mmHg 93%
    22:00 +13°C° 0 mm 3 m/S 747 mmHg 92%
    23:00 +14°C° 0 mm 2 m/S 747 mmHg 91%

    Morgen, 30 April, Sonntag

    Zeit Temperatur Niederschläge Wind Luftdruck Luftfeuchtigkeit
    00:00 +14°C° 0 mm 2 m/S 747 mmHg 91%
    01:00 +15°C° 0 mm 2 m/S 747 mmHg 90%
    02:00 +15°C° 0 mm 1 m/S 746 mmHg 88%
    03:00 +16°C° 0 mm 1 m/S 746 mmHg 87%
    04:00 +16°C° 0 mm 1 m/S 746 mmHg 86%
    05:00 +18°C° 0 mm 1 m/S 747 mmHg 85%
    06:00 +18°C° 0 mm 1 m/S 747 mmHg 84%
    07:00 +20°C° 0 mm 1 m/S 747 mmHg 77%
    08:00 +20°C° 0 mm 2 m/S 747 mmHg 70%
    09:00 +23°C° 0 mm 2 m/S 748 mmHg 64%
    10:00 +24°C° 0,2 mm 3 m/S 748 mmHg 63%
    11:00 +23°C° 0,2 mm 4 m/S 748 mmHg 63%
    12:00 +25°C° 0,2 mm 4 m/S 747 mmHg 62%
    13:00 +23°C° 0,3 mm 5 m/S 747 mmHg 64%
    14:00 +23°C° 0,3 mm 5 m/S 747 mmHg 66%
    15:00 +23°C° 0,3 mm 5 m/S 747 mmHg 68%
    16:00 +21°C° 0 mm 5 m/S 747 mmHg 73%
    17:00 +20°C° 0 mm 4 m/S 747 mmHg 78%
    18:00 +19°C° 0 mm 4 m/S 748 mmHg 82%
    19:00 +18°C° 0 mm 4 m/S 748 mmHg 86%
    20:00 +16°C° 0 mm 3 m/S 749 mmHg 90%
    21:00 +14°C° 0 mm 3 m/S 749 mmHg 94%
    22:00 +14°C° 0 mm 3 m/S 749 mmHg 94%
    23:00 +14°C° 0 mm 3 m/S 749 mmHg 93%

    übermorgen, 1 Mai, Montag

    Zeit Temperatur Niederschläge Wind Luftdruck Luftfeuchtigkeit
    00:00 +14°C° 0 mm 3 m/S 749 mmHg 92%
    01:00 +13°C° 0 mm 3 m/S 749 mmHg 92%
    02:00 +12°C° 0 mm 3 m/S 749 mmHg 92%
    03:00 +12°C° 0 mm 3 m/S 749 mmHg 91%
    04:00 +13°C° 0 mm 3 m/S 750 mmHg 90%
    05:00 +14°C° 0 mm 3 m/S 750 mmHg 89%
    06:00 +15°C° 0 mm 4 m/S 750 mmHg 88%
    07:00 +17°C° 0 mm 3 m/S 750 mmHg 80%
    08:00 +19°C° 0 mm 3 m/S 751 mmHg 73%
    09:00 +20°C° 0 mm 3 m/S 751 mmHg 66%
    10:00 +21°C° 0 mm 3 m/S 751 mmHg 64%
    11:00 +21°C° 0 mm 3 m/S 751 mmHg 63%
    12:00 +21°C° 0 mm 3 m/S 751 mmHg 62%
    13:00 +21°C° 0 mm 3 m/S 751 mmHg 63%
    14:00 +21°C° 0 mm 4 m/S 751 mmHg 63%
    15:00 +21°C° 0 mm 4 m/S 751 mmHg 64%
    16:00 +20°C° 0 mm 4 m/S 751 mmHg 69%
    17:00 +19°C° 0 mm 4 m/S 751 mmHg 73%
    18:00 +18°C° 0 mm 4 m/S 751 mmHg 77%
    19:00 +17°C° 0 mm 4 m/S 752 mmHg 83%
    20:00 +14°C° 0 mm 4 m/S 752 mmHg 88%
    21:00 +12°C° 0 mm 3 m/S 753 mmHg 94%
    22:00 +12°C° 0 mm 3 m/S 752 mmHg 94%
    23:00 +12°C° 0 mm 3 m/S 752 mmHg 94%

    2 Mai, Dienstag

    Zeit Temperatur Niederschläge Wind Luftdruck Luftfeuchtigkeit
    00:00 +11°C° 0 mm 3 m/S 752 mmHg 95%
    01:00 +11°C° 0 mm 3 m/S 752 mmHg 95%
    02:00 +11°C° 0 mm 3 m/S 752 mmHg 94%
    03:00 +11°C° 0 mm 3 m/S 752 mmHg 94%
    04:00 +12°C° 0 mm 3 m/S 752 mmHg 93%
    05:00 +13°C° 0 mm 3 m/S 752 mmHg 91%
    06:00 +14°C° 0 mm 3 m/S 752 mmHg 90%
    07:00 +17°C° 0 mm 3 m/S 752 mmHg 80%
    08:00 +19°C° 0 mm 3 m/S 752 mmHg 70%
    09:00 +21°C° 0 mm 3 m/S 752 mmHg 60%
    10:00 +22°C° 0 mm 4 m/S 752 mmHg 58%
    11:00 +23°C° 0 mm 4 m/S 751 mmHg 55%
    12:00 +25°C° 0 mm 5 m/S 751 mmHg 52%
    13:00 +25°C° 0 mm 5 m/S 750 mmHg 54%
    14:00 +25°C° 0 mm 5 m/S 750 mmHg 56%
    15:00 +25°C° 0 mm 5 m/S 749 mmHg 59%
    16:00 +23°C° 0 mm 5 m/S 749 mmHg 65%
    17:00 +21°C° 0 mm 5 m/S 749 mmHg 71%
    18:00 +20°C° 0 mm 4 m/S 749 mmHg 77%
    19:00 +18°C° 0 mm 4 m/S 750 mmHg 82%
    20:00 +17°C° 0 mm 3 m/S 750 mmHg 87%
    21:00 +14°C° 0 mm 3 m/S 750 mmHg 92%
    22:00 +14°C° 0 mm 3 m/S 750 mmHg 91%
    23:00 +15°C° 0 mm 2 m/S 750 mmHg 91%

    3 Mai, Mittwoch

    Zeit Temperatur Niederschläge Wind Luftdruck Luftfeuchtigkeit
    00:00 +15°C° 0 mm 2 m/S 749 mmHg 90%
    01:00 +14°C° 0 mm 2 m/S 749 mmHg 89%
    02:00 +14°C° 0 mm 2 m/S 749 mmHg 89%
    03:00 +14°C° 0 mm 2 m/S 748 mmHg 88%
    04:00 +15°C° 0 mm 2 m/S 748 mmHg 86%
    05:00 +16°C° 0 mm 2 m/S 749 mmHg 84%
    06:00 +17°C° 0 mm 2 m/S 749 mmHg 82%
    07:00 +20°C° 0 mm 2 m/S 749 mmHg 73%
    08:00 +23°C° 0 mm 2 m/S 749 mmHg 64%
    09:00 +26°C° 0 mm 3 m/S 749 mmHg 54%
    10:00 +26°C° 0 mm 3 m/S 749 mmHg 52%
    11:00 +27°C° 0 mm 4 m/S 748 mmHg 50%
    12:00 +28°C° 0 mm 4 m/S 748 mmHg 48%
    13:00 +28°C° 0 mm 5 m/S 748 mmHg 51%
    14:00 +28°C° 0 mm 5 m/S 747 mmHg 53%
    15:00 +28°C° 0 mm 5 m/S 747 mmHg 55%
    16:00 +26°C° 0 mm 5 m/S 747 mmHg 63%
    17:00 +25°C° 0 mm 5 m/S 747 mmHg 70%
    18:00 +22°C° 0 mm 5 m/S 747 mmHg 77%
    19:00 +20°C° 0 mm 4 m/S 747 mmHg 82%
    20:00 +18°C° 0 mm 4 m/S 747 mmHg 86%
    21:00 +17°C° 0 mm 4 m/S 748 mmHg 91%
    22:00 +16°C° 0 mm 3 m/S 747 mmHg 91%
    23:00 +16°C° 0 mm 3 m/S 747 mmHg 90%

    4 Mai, Donnerstag

    Zeit Temperatur Niederschläge Wind Luftdruck Luftfeuchtigkeit
    00:00 +16°C° 0 mm 3 m/S 747 mmHg 89%
    01:00 +16°C° 0 mm 3 m/S 747 mmHg 89%
    02:00 +14°C° 0 mm 3 m/S 747 mmHg 89%
    03:00 +14°C° 0 mm 3 m/S 746 mmHg 88%
    04:00 +16°C° 0 mm 3 m/S 746 mmHg 86%
    05:00 +18°C° 0 mm 3 m/S 747 mmHg 85%
    06:00 +19°C° 0 mm 3 m/S 747 mmHg 83%
    07:00 +21°C° 0 mm 3 m/S 747 mmHg 74%
    08:00 +24°C° 0 mm 3 m/S 747 mmHg 64%
    09:00 +27°C° 0 mm 3 m/S 747 mmHg 55%
    10:00 +28°C° 0 mm 3 m/S 747 mmHg 52%
    11:00 +29°C° 0 mm 4 m/S 746 mmHg 49%
    12:00 +30°C° 0 mm 4 m/S 746 mmHg 46%
    13:00 +29°C° 0 mm 4 m/S 746 mmHg 48%
    14:00 +29°C° 0 mm 5 m/S 746 mmHg 49%
    15:00 +29°C° 0 mm 5 m/S 745 mmHg 51%
    16:00 +28°C° 0 mm 5 m/S 745 mmHg 58%
    17:00 +26°C° 0 mm 4 m/S 745 mmHg 66%
    18:00 +25°C° 0 mm 4 m/S 745 mmHg 73%
    19:00 +22°C° 0 mm 4 m/S 745 mmHg 77%
    20:00 +21°C° 0 mm 4 m/S 746 mmHg 81%
    21:00 +19°C° 0 mm 3 m/S 746 mmHg 85%
    22:00 +19°C° 0 mm 3 m/S 746 mmHg 83%
    23:00 +19°C° 0 mm 3 m/S 745 mmHg 82%
    Mehr zeigen